Location: *
(57.8420°S, 159.8600°W)
Time: 04:44:01
(UTC+00:00)

SL-16 R/B - Pass Details

Date: 18 May 2021
Orbit: 843 x 845 km, 71.0° (Epoch: 20 June)

Event Time Altitude Azimuth Distance (km) Brightness Sun altitude
Rises 05:49:10 0° 254° (WSW) 3,436 6.6 -26.2°
Reaches altitude 10° 05:52:11 10° 239° (WSW) 2,502 5.5 -26.6°
Maximum altitude 05:56:40 23° 188° (S) 1,766 3.9 -27.2°
Enters shadow 05:58:03 21° 167° (SSE) 1,850 3.9 -27.4°
